Weather History for KGEV - December, 2001

Change the Weather History Date:

Monday, December 31, 2001

  Actual Average Record
Temperature  
Mean Temperature 24 °F -  
Max Temperature 30 °F 43 °F 69 °F (1992)
Min Temperature 17 °F 26 °F 1 °F (1983)
Degree Days  
Heating Degree Days 42    
Moisture  
Dew Point 5 °F    
Average Humidity 46    
Maximum Humidity 63    
Minimum Humidity 32    
Precipitation  
Precipitation 0.00 in - - ()
Sea Level Pressure  
Sea Level Pressure 30.00 in    
Wind  
Wind Speed 9 mph (WNW)    
Max Wind Speed 17 mph    
Max Gust Speed 24 mph    
Visibility 10 miles    
Events      
Averages and records for this station are not official NWS values.
T = Trace of Precipitation, MM = Missing Value Source: NWS Daily Summary

Daily Weather History Graph

Daily Weather History Graph

Search for Another Location

Airport or City:

Trip Planner

Search our weather history database for the weather conditions in past years. The results will help you decide how hot, cold, wet, or windy it might be!

Date:

Astronomy

Dec. 31, 2001 Rise Set
Actual Time 7:37 AM EST 5:20 PM EST
Civil Twilight 7:08 AM EST 5:49 PM EST
Nautical Twilight 6:36 AM EST 6:21 PM EST
Astronomical Twilight 6:05 AM EST 6:52 PM EST
Moon 6:47 PM EST (12/31) 8:49 AM EST (12/31)
Length of Visible Light 10h 40m
Length of Day
9h 43m
Full, 98% of the Moon is Illuminated
Dec 31
Full
Jan 5
Last Quarter
Jan 13
New
Jan 21
First Quarter
Jan 28
Full

Hourly Weather History & Observations

Time (EST) Temp. Windchill Dew Point Humidity Pressure Visibility Wind Dir Wind Speed Gust Speed Precip Events Conditions
12:02 AM 21.2 °F 10.1 °F 1.4 °F 42% 30.01 in 10.0 mi WNW 10.4 mph - N/A   Clear
12:20 AM 21.2 °F 9.5 °F 1.4 °F 42% 30.01 in 10.0 mi NW 11.5 mph 16.1 mph N/A   Clear
12:40 AM 21.2 °F 10.1 °F 1.4 °F 42% 30.03 in 10.0 mi WNW 10.4 mph 18.4 mph N/A   Clear
1:03 AM 21.2 °F 7.8 °F 1.4 °F 42% 30.02 in 10.0 mi NW 15.0 mph 20.7 mph N/A   Scattered Clouds
1:20 AM 21.2 °F 8.3 °F 1.4 °F 42% 30.02 in 10.0 mi WNW 13.8 mph 21.9 mph N/A   Scattered Clouds
1:40 AM 21.2 °F 8.3 °F 3.2 °F 46% 30.03 in 10.0 mi West 13.8 mph 17.3 mph N/A   Mostly Cloudy
2:02 AM 19.4 °F 9.5 °F 3.2 °F 49% 30.03 in 10.0 mi WNW 8.1 mph - N/A   Scattered Clouds
2:23 AM 19.4 °F 7.2 °F 3.2 °F 49% 30.03 in 10.0 mi NW 11.5 mph 16.1 mph N/A   Mostly Cloudy
2:40 AM 19.4 °F 10.4 °F 3.2 °F 49% 30.03 in 10.0 mi WNW 6.9 mph - N/A   Scattered Clouds
3:02 AM 19.4 °F 5.5 °F 3.2 °F 49% 30.02 in 10.0 mi NW 15.0 mph 23.0 mph N/A   Scattered Clouds
3:20 AM 19.4 °F 9.5 °F 3.2 °F 49% 30.02 in 10.0 mi NW 8.1 mph 20.7 mph N/A   Scattered Clouds
3:43 AM 19.4 °F 6.0 °F 5.0 °F 54% 30.01 in 10.0 mi North 13.8 mph 19.6 mph N/A   Scattered Clouds
4:02 AM 17.6 °F 8.2 °F 3.2 °F 53% 30.01 in 10.0 mi North 6.9 mph - N/A   Clear
4:24 AM 17.6 °F 8.2 °F 3.2 °F 53% 30.00 in 10.0 mi North 6.9 mph - N/A   Clear
4:42 AM 17.6 °F - 5.0 °F 58% 30.01 in 10.0 mi Calm Calm - N/A   Clear
5:03 AM 17.6 °F - 5.0 °F 58% 30.01 in 10.0 mi Calm Calm - N/A   Clear
5:22 AM 17.6 °F 12.3 °F 5.0 °F 58% 30.01 in 10.0 mi SSW 3.5 mph - N/A   Clear
5:40 AM 17.6 °F 9.3 °F 5.0 °F 58% 30.01 in 10.0 mi WNW 5.8 mph - N/A   Clear
6:00 AM 17.6 °F 8.2 °F 6.8 °F 63% 30.02 in 10.0 mi NW 6.9 mph 24.2 mph N/A   Clear
6:20 AM 17.6 °F 10.7 °F 6.8 °F 63% 30.02 in 10.0 mi WNW 4.6 mph 20.7 mph N/A   Clear
6:44 AM 17.6 °F 7.3 °F 5.0 °F 58% 30.01 in 10.0 mi NW 8.1 mph - N/A   Clear
7:00 AM 17.6 °F 9.3 °F 5.0 °F 58% 30.01 in 10.0 mi NW 5.8 mph 19.6 mph N/A   Clear
7:23 AM 17.6 °F 4.3 °F 6.8 °F 63% 30.03 in 10.0 mi NW 12.7 mph 20.7 mph N/A   Clear
7:40 AM 17.6 °F 4.3 °F 6.8 °F 63% 30.03 in 10.0 mi WNW 12.7 mph 18.4 mph N/A   Clear
8:02 AM 17.6 °F 9.3 °F 6.8 °F 63% 30.05 in 10.0 mi West 5.8 mph - N/A   Clear
8:25 AM 17.6 °F - 6.8 °F 63% 30.05 in 10.0 mi Calm Calm - N/A   Clear
8:40 AM 17.6 °F 8.2 °F 5.0 °F 58% 30.05 in 10.0 mi WNW 6.9 mph - N/A   Clear
9:02 AM 19.4 °F 5.0 °F 6.8 °F 58% 30.04 in 10.0 mi WNW 16.1 mph 21.9 mph N/A   Clear
9:23 AM 17.6 °F 3.7 °F 5.0 °F 58% 30.04 in 10.0 mi West 13.8 mph 21.9 mph N/A   Clear
9:42 AM 19.4 °F 7.9 °F 6.8 °F 58% 30.04 in 10.0 mi WNW 10.4 mph - N/A   Clear
10:04 AM 21.2 °F 9.5 °F 6.8 °F 54% 30.04 in 10.0 mi WNW 11.5 mph 17.3 mph N/A   Clear
10:20 AM 21.2 °F 6.8 °F 5.0 °F 50% 30.04 in 10.0 mi WNW 17.3 mph 23.0 mph N/A   Clear
10:43 AM 23.0 °F 14.7 °F 6.8 °F 50% 30.04 in 10.0 mi WNW 6.9 mph - N/A   Clear
11:00 AM 24.8 °F 16.9 °F 6.8 °F 46% 30.04 in 10.0 mi WNW 6.9 mph - N/A   Clear
11:22 AM 26.6 °F 17.5 °F 6.8 °F 43% 30.02 in 10.0 mi WNW 9.2 mph - N/A   Clear
11:40 AM 28.4 °F 19.7 °F 6.8 °F 40% 30.00 in 10.0 mi WNW 9.2 mph - N/A   Clear
12:02 PM 28.4 °F 21.2 °F 6.8 °F 40% 30.00 in 10.0 mi NW 6.9 mph 10.4 mph N/A   Clear
12:20 PM 28.4 °F 19.7 °F 6.8 °F 40% 29.99 in 10.0 mi WNW 9.2 mph - N/A   Clear
12:40 PM 28.4 °F 22.2 °F 5.0 °F 37% 29.98 in 10.0 mi West 5.8 mph - N/A   Clear
1:05 PM 28.4 °F 24.6 °F 5.0 °F 37% 29.97 in 10.0 mi WNW 3.5 mph - N/A   Clear
1:22 PM 28.4 °F 21.2 °F 5.0 °F 37% 29.96 in 10.0 mi WNW 6.9 mph - N/A   Clear
1:40 PM 28.4 °F 20.4 °F 3.2 °F 34% 29.95 in 10.0 mi WNW 8.1 mph - N/A   Clear
2:00 PM 28.4 °F 22.2 °F 3.2 °F 34% 29.96 in 10.0 mi WNW 5.8 mph - N/A   Scattered Clouds
2:20 PM 30.2 °F 24.3 °F 3.2 °F 32% 29.96 in 10.0 mi NW 5.8 mph - N/A   Scattered Clouds
2:42 PM 30.2 °F 26.7 °F 3.2 °F 32% 29.95 in 10.0 mi NW 3.5 mph - N/A   Mostly Cloudy
3:02 PM 30.2 °F 25.4 °F 3.2 °F 32% 29.95 in 10.0 mi WNW 4.6 mph - N/A   Overcast
3:22 PM 30.2 °F 23.4 °F 3.2 °F 32% 29.96 in 10.0 mi WNW 6.9 mph - N/A   Scattered Clouds
3:40 PM 30.2 °F - 3.2 °F 32% 29.96 in 10.0 mi Calm Calm - N/A   Scattered Clouds
4:02 PM 30.2 °F 24.3 °F 3.2 °F 32% 29.96 in 10.0 mi WNW 5.8 mph - N/A   Mostly Cloudy
4:20 PM 28.4 °F 23.3 °F 3.2 °F 34% 29.97 in 10.0 mi WNW 4.6 mph - N/A   Mostly Cloudy
4:42 PM 28.4 °F 23.3 °F 3.2 °F 34% 29.97 in 10.0 mi WNW 4.6 mph - N/A   Overcast
5:00 PM 28.4 °F 20.4 °F 3.2 °F 34% 29.97 in 10.0 mi West 8.1 mph - N/A   Overcast
5:20 PM 28.4 °F 19.7 °F 3.2 °F 34% 29.97 in 10.0 mi WNW 9.2 mph - N/A   Overcast
5:40 PM 28.4 °F 21.2 °F 5.0 °F 37% 29.97 in 10.0 mi West 6.9 mph - N/A   Overcast
6:00 PM 28.4 °F - 6.8 °F 40% 29.97 in 10.0 mi Calm Calm - N/A   Overcast
6:20 PM 28.4 °F - 6.8 °F 40% 29.97 in 10.0 mi Calm Calm - N/A   Overcast
6:40 PM 26.6 °F - 8.6 °F 47% 29.98 in 10.0 mi Calm Calm - N/A   Overcast
7:02 PM 26.6 °F - 6.8 °F 43% 29.98 in 10.0 mi Calm Calm - N/A   Overcast
7:20 PM 26.6 °F - 8.6 °F 47% 29.98 in 10.0 mi Calm Calm - N/A   Overcast
7:42 PM 24.8 °F - 8.6 °F 50% 29.98 in 10.0 mi Calm Calm - N/A   Mostly Cloudy
8:03 PM 24.8 °F - 6.8 °F 46% 29.98 in 10.0 mi Calm Calm - N/A   Mostly Cloudy
8:22 PM 23.0 °F 18.4 °F 8.6 °F 54% 29.97 in 10.0 mi NNW 3.5 mph - N/A   Scattered Clouds
8:40 PM 23.0 °F 13.1 °F 6.8 °F 50% 29.97 in 10.0 mi WNW 9.2 mph - N/A   Clear
9:00 PM 21.2 °F 12.6 °F 5.0 °F 50% 29.97 in 10.0 mi WNW 6.9 mph - N/A   Mostly Cloudy
10:03 PM 19.4 °F 11.5 °F 8.6 °F 63% 29.98 in 10.0 mi NW 5.8 mph - N/A   Clear
10:20 PM 19.4 °F 10.4 °F 8.6 °F 63% 29.97 in 10.0 mi WNW 6.9 mph - N/A   Clear
10:43 PM 19.4 °F 10.4 °F 8.6 °F 63% 29.97 in 10.0 mi WNW 6.9 mph - N/A   Clear
11:03 PM 17.6 °F - 8.6 °F 68% 29.97 in 10.0 mi Calm Calm - N/A   Clear
11:20 PM 17.6 °F 10.7 °F 8.6 °F 68% 29.97 in 10.0 mi WNW 4.6 mph - N/A   Clear
11:43 PM 17.6 °F 12.3 °F 8.6 °F 68% 29.97 in 10.0 mi WNW 3.5 mph - N/A   Clear